LiveATC.Net - Listen to live air traffic control over the Internet!


ICAO: KUES  IATA: UES   Airport: Waukesha County Airport
City: Waukesha   State/Province: Wisconsin
Country: United States   Continent: North America
KUES METAR Weather: KUES 261445Z 30009KT 10SM SKC 24/15 A2980
KUES Flight Activity (FlightAware)
KUES Airport Info   (AirNav) (iFlightPlanner)
KUES VFR Sectional Chart   (iFlightPlanner) 
KUES IFR Low Chart   (iFlightPlanner) 

KUES Gnd/Twr
Feed Status: DOWN
Last heard on: 2017-11-21 02:10:02 (186 days 13 hours 19 minutes ago)
KUES Gnd/Twr Audio Archives
FacilityFrequency
Waukesha Ground121.600
Waukesha Tower123.700

NOTICE

Unauthorized use prohibited. See LiveATC.net Terms of Service


Find LiveATC Audio Streams


Airport/ARTCC Code

Frequency Search
(e.g., 124.400, 128.75)
Site-wide search
 


Browse LiveATC Feeds
LiveATC Coverage Map
Top 50 LiveATC Feeds
Bad Weather Areas

LiveATC FAQ
Offer a LiveATC Feed
Contact LiveATC.net
Press Inquiries

LiveATC on iPhone
LiveATC on Android

Windows Phone
Windows 8/10

LiveATC Mobile
(Mobile browser)

ATC Audio Archives
Interesting Recordings

LiveATC Forums


Home Page
About LiveATC.net
Make a Donation
Terms of Use
Privacy Policy

Canadian Air Freqs

AIRMETs/SIGMETs

FAA Airport Status
Nat'l Airspace Status
Arrival Demand Charts


Server Software By:
Icecast.org
Liquidsoap